Accueil
METAR-TAF:

METAR-TAF

Aéroports :

Pontoise, France

Aéroport de Pontoise - Cormeilles-en-Vexin

latitude: 49-05-48N, longitude: 002-02-27E, altitude: 99 m

Observation

Le bulletin a été fait il y a 33 minutes, à 06:00 UTC
Vent 12 kt de sud-ouest
Température 15°C
Humidité 88%
Pression 1011 hPa
Visibilité 10 km ou plus
Nuages épars à une hauteur de 1600 ft
Nuages épars à une hauteur de 5000 ft
Nuages fragmentés à une hauteur de 6400 ft
pluie

METAR: LFPT 210600Z AUTO 23012KT 9999 RA SCT016 SCT050 BKN064 15/13 Q1011

Heure: 08:33 (06:33 UTC)


TAF: absent

Observations et prévisions météorologiques de plus de 4000 aéroports (messages METAR et TAF).

Les stations disponibles sont représentées par des disques jaunes et rouges sur la carte.

Passer la souris dessus pour voir le nom de la station.

Cliquer dessus pour voir les observations et prévisions météorologiques.

Pour changer de carte: cliquez sur les boutons verts avec une croix noire pour zoomer, sur le bouton vert avec un tiret pour effectuer un zoom arrière, ou sur les flèches vertes pour les cartes adjacentes.


METAR-TAF: